User: anonymous   Login
Location: Unspecified
(0.0000°N, 0.0000°E)
Time: 18:42:52
(UTC+00:00)
Language:

APRIZESAT 9 - Orbit

View from above orbital plane
View from above orbital plane
View from above satellite
View from above satellite

Ground track
Ground track

The orbit data is extracted from the following two-line orbital elements,

1 40018U 14033J   19077.85285025  .00000023  00000-0  11566-4 0  9991
2 40018  97.7558 296.9479 0072760  62.8422 298.0179 14.69917406254451
Epoch (UTC): 18 March 2019 20:28:06
Eccentricity: 0.0072760
inclination: 97.7558°
perigee height: 610 km
apogee height: 712 km
right ascension of ascending node: 296.9479°
argument of perigee: 62.8422°
revolutions per day: 14.69917406
mean anomaly at epoch: 298.0179°
orbit number at epoch: 25445

The dashed part of the orbit path shows where the satellite is in the earth's shadow,  

DLR